STARLINK-3397, 51115

Orbit data source: Space-Track

STARLINK-3397, 51115 is a payload satellite owned by SpaceX/Seattle (US) in LEO that was launched on Wed, 19 Jan 2022 UTC via an FALCON 9 launch vehicle from the Air Force Eastern Test Range (AFETR). Payload-class satellites include a variety of spacecraft equipped with specific instruments for various scientific and technological missions. These include communications satellites like Starlink; space stations such as the ISS; scientific satellites like the Hubble; Earth observation satellites from companies like Planet Labs, Umbra, and HawkEye 360; GPS; miniature CubeSats for education and research; and military/defense satellites.

Loading next visibility...
Identifier
51115, 2022-005M
Orbit
LEO
Country
Flag of USUS
Related business
Manufacturer
SpaceX/Seattle
Mission
Operational Commercial Communications
Bus & Motor
STARLINK, Unknown motor
Mass
297 kg wet, ~275 kg dry
Launch date (UTC)
2022-01-19 (4 years ago)
Launch vehicle
FALCON 9
Launch site
Air Force Eastern Test Range (AFETR)
Object type
Payload
Rocket body
Debris
Shape & HBR
Box + 1 Pan, 10.1 m
Radar Cross Section
13.562 m², Large (>1 m²)

Expand to show TLE details & history
Last TLE update: 2 days ago

TLE from 2 days ago
0 STARLINK-3397
1 51115U 22005M   26171.41899912  .00000096  00000-0  24118-4 0  9997
2 51115  53.1587 187.8344 0001090  80.9545 279.1570 15.08831171244387
Epoch: 2026-06-20T10:03Z
TLE epoch observation values (Epoch: 2026-06-20T10:03:21.523Z)
Latitude
-0.00002°
Longitude
128.36081°
Altitude
540.542 km
Speed
7.593 km/s
True Right ascension
12h 31m 20s
True Declination
0° 00' 00"
Sunlit
Object was in daylight at epoch
Visualization orbit readout
Latitude
Unknown
Longitude
Unknown
Altitude
Unknown
Speed
Unknown
Apparent Right ascension
Unknown
Apparent Declination
Unknown
Sunlit
N/A
Visualization observer readout
Local Sidereal Time
23:19:23
Azimuth
Unknown
Elevation
Unknown
Doppler factor
Unknown
Orbital elements
Apogee altitude
540.779 km
Perigee altitude
539.271 km
Semi-major axis
6,918.162 km
Eccentricity
0.00011
Inclination
53.1587°
RAAN
187.8344°
Arg. of periapsis
80.9545°
True anomaly
279.14467°
Mean anomaly
279.157°
Eccentric anomaly
279.15083°
Mean motion
3.77187 °/min
Orbital period
95.44 mins
BSTAR
0.000024118
Loading maneuver chart data...
Computing Atmospheric mass density...
Loading historical data...
Loading historical data...
Loading historical data...
Loading historical data...
Loading historical data...
Loading historical data...
Loading historical data...

Documentation

Showing up to 5 results
|